Location: Boda
(47.1872°N, 9.5454°E)
Time: 09:53:30
(UTC+00:00)

Cosmos 1371 Rocket - Pass Details

Date: 14 May 2021
Orbit: 754 x 789 km, 74.0° (Epoch: 16 June)

Event Time Altitude Azimuth Distance (km) Brightness Sun altitude
Exits shadow 02:25:12 16° 220° (SW) 1,892 5.4 -11.9°
Maximum altitude 02:29:14 58° 296° (WNW) 891 4.2 -11.4°
Drops below altitude 10° 02:34:22 10° 15° (NNE) 2,296 7.5 -10.8°
Sets 02:36:47 0° 20° (NNE) 3,223 8.5 -10.5°
